COSMOS 588

Satellite information

Favourite Embed

Satellite Type and Status

PAYLOADIN ORBIT

Key statistics

Satellite COSMOS 588 at a glance.

Uptime

18851

Days in orbit

Revolutions

≈ 12.5

Per day

Orbit

LEO

Low Earth Orbit

Inclination

74.0

Latest

Satellite identification and parameters

Extended collection of information and parameters for COSMOS 588.

Object identification

Identified? True

Debris? False

Object name: COSMOS 588

International designator: 1973-069A

Object number (NORAD): 6845

Object ID (CCSDS): 6845

Country: COMMONWEALTH OF INDEPENDENT STATES (CIS)

Current information (Y/N): Y

RCS size: MEDIUM

Orbital parameters

Period: 115.326 minutes

Inclination: 73.9986 deg

SMA: 7848.37 km

Apoapsis: 1492.445 km

Periapsis: 1448.025 km

RAAN: 164.397 deg

Eccentricy: 0.0028299

Argument of periapsis: 33.3296 deg

Mean anomaly: 140.1916 deg

Mean motion: 12.48629434 rev/day

Mean motion (dot): 0.00000017 rev/day2

B* drag term: 0.00022315 1/REarth

Two-line elements (TLE)

Creation date: May 12, 2025, 2:31 a.m.

Reference frame: TEME

Reference center: EARTH

Epoch: May 11, 2025, 8:22 p.m. UTC

TLE line 0: 0 COSMOS 588

TLE line 1: 1 06845U 73069A 25131.84917203 .00000017 00000-0 22315-3 0 9998

TLE line 2: 2 06845 73.9986 164.3970 0028299 33.3296 140.1916 12.48629434352301

Live tracking on map

Real-time ground track for satellite COSMOS 588.

In-orbit conjunctions

A list of the most updated potential collisions computed for object COSMOS 588.

Target Orbit TCA Probability of collision Miss distance Type
DELTA 1 DEB SSO 2025-02-01 03:00:17 0.0002068184 317.0 (m) DEBRIS

Associated space launch

Military communications satellites

COSMOS 588 was lifted into orbit during the mission ‘Kosmos-3M | Strela-1M 49-56’, on board a Kosmos-3M space rocket.

The launch took place on Oct. 2, 1973, 9:46 p.m. from 132/2.

For more information about the launch, click the button.

Launch to space Kosmos-3M | Strela-1M 49-56
Kosmos-3M | Strela-1M 49-56

Agency: N/A

Status: Launch Successful

Launch date: Oct. 2, 1973, 9:46 p.m. UTC

Rocket: Kosmos-3M

Launch pad: 132/2

Location: Plesetsk Cosmodrome, Russian Federation

...

Latest news about this satellite

There are no fresh news available about this satellite. Check back as we update our databases every day.


Newsletter sign-up

Weekly statistics, charts and insights to help you stay on top of the space industry.